Weather History for KRQB - August, 2013

Change the Weather History Date:

Thursday, August 22, 2013

  Actual Average (KMKG) Record (KMKG)
Temperature  
Mean Temperature 69 °F 69 °F  
Max Temperature 77 °F 78 °F 92 °F (1947)
Min Temperature 59 °F 61 °F 42 °F (1907)
Degree Days  
Heating Degree Days 0 1  
Month to date heating degree days 5  
Since 1 June heating degree days 82  
Since 1 July heating degree days 16  
Cooling Degree Days 4 5  
Month to date cooling degree days 127  
Year to date cooling degree days 463  
Since 1 June cooling degree days 434  
Growing Degree Days 19 (Base 50)    
Moisture  
Dew Point 64 °F    
Average Humidity 81    
Maximum Humidity 100    
Minimum Humidity 53    
Precipitation  
Precipitation 0.12 in 0.10 in 1.24 in (2002)
Month to date precipitation 2.38  
Year to date precipitation 19.57  
Snow  
Snow 0.00 in 0.00 in - ()
Month to date snowfall 0.0  
Since 1 June snowfall 0.0  
Since 1 July snowfall 0.0  
Snow Depth -    
Sea Level Pressure  
Sea Level Pressure 30.05 in    
Wind  
Wind Speed 5 mph (NW)    
Max Wind Speed 10 mph    
Max Gust Speed 18 mph    
Visibility 9 miles    
Events Rain    
T = Trace of Precipitation, MM = Missing Value Source: NWS Daily Summary

Daily Weather History Graph

Daily Weather History Graph

Search for Another Location

Airport or City:

Trip Planner

Search our weather history database for the weather conditions in past years. The results will help you decide how hot, cold, wet, or windy it might be!

Date:

Astronomy

Aug. 22, 2013 Rise Set
Actual Time 6:54 AM EDT 8:34 PM EDT
Civil Twilight 6:24 AM EDT 9:04 PM EDT
Nautical Twilight 5:47 AM EDT 9:41 PM EDT
Astronomical Twilight 5:07 AM EDT 10:20 PM EDT
Moon 9:11 PM EDT (8/22) 8:47 AM EDT (8/22)
Length of Visible Light 14h 40m
Length of Day
13h 39m
Waning Gibbous, 97% of the Moon is Illuminated
Aug 22
Waning Gibbous
Aug 28
Last Quarter
Sep 5
New
Sep 12
First Quarter
Sep 19
Full

Hourly Weather History & Observations

Time (EDT) Temp. Dew Point Humidity Pressure Visibility Wind Dir Wind Speed Gust Speed Precip Events Conditions
12:15 AM 68.5 °F 63.5 °F 84% 30.06 in 10.0 mi WNW 8.1 mph - 0.01 in Rain Light Rain
12:35 AM 67.3 °F 66.2 °F 96% 30.05 in 10.0 mi NW 5.8 mph - 0.03 in Rain Rain
12:55 AM 67.1 °F 66.6 °F 98% 30.04 in 10.0 mi NNW 5.8 mph - 0.07 in Rain Light Rain
1:15 AM 66.9 °F 66.7 °F 99% 30.02 in 10.0 mi SSE 5.8 mph - 0.04 in Rain Rain
1:35 AM 66.4 °F 66.4 °F 100% 29.96 in 10.0 mi SSE 6.9 mph - 0.05 in Rain Light Rain
1:55 AM 66.6 °F 66.6 °F 100% 29.96 in 10.0 mi SE 4.6 mph - 0.05 in   Clear
2:15 AM 66.0 °F 66.0 °F 100% 29.95 in 10.0 mi SE 5.8 mph - N/A   Clear
2:34 AM 65.7 °F 65.7 °F 100% 29.94 in 10.0 mi South 4.6 mph - N/A   Clear
2:55 AM 65.5 °F 65.5 °F 100% 29.95 in 10.0 mi NW 3.5 mph - N/A   Clear
3:15 AM 65.3 °F 65.3 °F 100% 29.97 in 10.0 mi Calm Calm - N/A   Clear
3:34 AM 64.4 °F 64.4 °F 100% 29.98 in 10.0 mi NNW 3.5 mph - N/A   Clear
3:55 AM 64.2 °F 64.2 °F 100% 30.01 in 10.0 mi NW 8.1 mph - N/A   Mostly Cloudy
4:15 AM 65.5 °F 65.5 °F 100% 30.01 in 10.0 mi WNW 10.4 mph 18.4 mph N/A   Overcast
4:34 AM 65.5 °F 65.5 °F 100% 30.02 in 10.0 mi NW 6.9 mph - N/A   Overcast
4:55 AM 65.3 °F 65.3 °F 100% 30.03 in 10.0 mi NNW 6.9 mph - N/A   Mostly Cloudy
5:15 AM 64.6 °F 64.6 °F 100% 30.03 in 10.0 mi NNW 3.5 mph - N/A   Scattered Clouds
5:34 AM 64.6 °F 64.6 °F 100% 30.04 in 10.0 mi Calm Calm - N/A   Mostly Cloudy
5:55 AM 64.4 °F 64.4 °F 100% 30.04 in 10.0 mi Calm Calm - N/A   Mostly Cloudy
6:15 AM 63.9 °F 63.9 °F 100% 30.04 in 7.0 mi Calm Calm - N/A   Scattered Clouds
6:34 AM 64.2 °F 64.2 °F 100% 30.04 in 10.0 mi Calm Calm - N/A   Scattered Clouds
6:55 AM 62.2 °F 62.2 °F 100% 30.05 in 1.2 mi SE 5.8 mph - N/A   Mostly Cloudy
7:15 AM 63.5 °F 63.5 °F 100% 30.05 in 5.0 mi East 6.9 mph - N/A   Overcast
7:34 AM 63.5 °F 63.5 °F 100% 30.06 in 4.0 mi Calm Calm - N/A   Overcast
7:55 AM 64.2 °F 64.2 °F 100% 30.06 in 4.0 mi SE 3.5 mph - N/A   Overcast
8:15 AM 65.3 °F 65.3 °F 100% 30.05 in 4.0 mi ESE 9.2 mph - N/A   Overcast
8:34 AM 65.7 °F 65.7 °F 100% 30.05 in 5.0 mi Calm Calm - N/A   Overcast
8:55 AM 66.6 °F 66.6 °F 100% 30.05 in 7.0 mi Calm Calm - N/A   Overcast
9:15 AM 67.1 °F 66.9 °F 99% 30.05 in 7.0 mi Calm Calm - N/A   Overcast
9:34 AM 68.4 °F 67.6 °F 98% 30.05 in 10.0 mi Calm Calm - N/A   Overcast
9:55 AM 69.8 °F 68.2 °F 95% 30.04 in 10.0 mi Calm Calm - N/A   Scattered Clouds
10:15 AM 71.4 °F 68.9 °F 92% 30.05 in 10.0 mi Calm Calm - N/A   Scattered Clouds
10:34 AM 72.9 °F 65.8 °F 79% 30.05 in 10.0 mi WNW 3.5 mph - N/A   Clear
10:55 AM 75.0 °F 65.7 °F 73% 30.06 in 10.0 mi West 4.6 mph - N/A   Clear
11:15 AM 75.2 °F 66.0 °F 73% 30.07 in 10.0 mi WNW 8.1 mph - N/A   Clear
11:34 AM 75.6 °F 66.6 °F 74% 30.07 in 10.0 mi WNW 8.1 mph - N/A   Clear
11:55 AM 75.9 °F 65.5 °F 70% 30.07 in 10.0 mi North 10.4 mph - N/A   Clear
12:15 PM 76.6 °F 65.7 °F 69% 30.07 in 10.0 mi NNW 6.9 mph - N/A   Clear
12:34 PM 76.1 °F 65.3 °F 69% 30.07 in 10.0 mi North 8.1 mph - N/A   Clear
12:55 PM 76.8 °F 66.2 °F 70% 30.06 in 10.0 mi NNW 6.9 mph - N/A   Clear
1:15 PM 77.0 °F 66.0 °F 69% 30.06 in 10.0 mi WNW 10.4 mph - N/A   Clear
1:34 PM 76.3 °F 66.4 °F 71% 30.07 in 10.0 mi WNW 8.1 mph - N/A   Clear
1:55 PM 76.8 °F 67.1 °F 72% 30.06 in 10.0 mi North 6.9 mph - N/A   Clear
2:15 PM 76.6 °F 66.9 °F 72% 30.07 in 10.0 mi North 6.9 mph - N/A   Clear
2:34 PM 76.5 °F 66.4 °F 71% 30.06 in 10.0 mi North 4.6 mph - N/A   Clear
2:55 PM 77.0 °F 66.0 °F 69% 30.06 in 10.0 mi West 5.8 mph - N/A   Clear
3:15 PM 77.0 °F 66.0 °F 69% 30.06 in 10.0 mi NW 4.6 mph - N/A   Clear
3:34 PM 77.4 °F 66.4 °F 69% 30.06 in 10.0 mi West 6.9 mph - N/A   Clear
3:55 PM 77.9 °F 66.0 °F 67% 30.06 in 10.0 mi WNW 8.1 mph - N/A   Clear
4:15 PM 77.7 °F 68.4 °F 73% 30.05 in 10.0 mi WSW 8.1 mph - N/A   Clear
4:35 PM 77.0 °F 68.4 °F 75% 30.05 in 10.0 mi WSW 6.9 mph - N/A   Clear
4:55 PM 77.5 °F 68.5 °F 74% 30.04 in 10.0 mi West 9.2 mph - N/A   Clear
5:15 PM 77.4 °F 68.4 °F 74% 30.04 in 10.0 mi West 6.9 mph - N/A   Clear
5:35 PM 77.2 °F 68.4 °F 74% 30.04 in 10.0 mi West 10.4 mph - N/A   Scattered Clouds
5:55 PM 77.7 °F 67.6 °F 71% 30.04 in 10.0 mi West 6.9 mph - N/A   Mostly Cloudy
6:15 PM 77.7 °F 67.3 °F 70% 30.04 in 10.0 mi West 6.9 mph - N/A   Scattered Clouds
6:35 PM 77.9 °F 67.3 °F 70% 30.05 in 10.0 mi North 6.9 mph - N/A   Mostly Cloudy
6:55 PM 76.1 °F 60.3 °F 58% 30.05 in 10.0 mi North 8.1 mph - N/A   Scattered Clouds
7:15 PM 76.3 °F 57.7 °F 53% 30.05 in 10.0 mi North 6.9 mph - N/A   Clear
7:35 PM 75.6 °F 57.2 °F 53% 30.05 in 10.0 mi WNW 8.1 mph - N/A   Clear
7:55 PM 74.5 °F 58.1 °F 57% 30.06 in 10.0 mi WNW 8.1 mph - N/A   Scattered Clouds
8:15 PM 73.9 °F 57.9 °F 57% 30.06 in 10.0 mi WNW 5.8 mph - N/A   Scattered Clouds
8:35 PM 71.6 °F 58.3 °F 63% 30.06 in 10.0 mi NW 3.5 mph - N/A   Clear
8:55 PM 67.6 °F 59.9 °F 76% 30.07 in 10.0 mi NNW 4.6 mph - N/A   Clear
9:15 PM 66.7 °F 56.8 °F 70% 30.08 in 10.0 mi NNW 5.8 mph - N/A   Clear
9:35 PM 68.0 °F 53.8 °F 60% 30.09 in 10.0 mi WNW 6.9 mph - N/A   Clear
9:55 PM 67.8 °F 52.5 °F 58% 30.09 in 10.0 mi NNW 4.6 mph - N/A   Clear
10:15 PM 67.1 °F 52.2 °F 59% 30.10 in 10.0 mi Calm Calm - N/A   Clear
10:35 PM 64.8 °F 51.8 °F 63% 30.10 in 10.0 mi Calm Calm - N/A   Clear
10:55 PM 61.7 °F 52.5 °F 72% 30.11 in 10.0 mi Calm Calm - N/A   Clear
11:14 PM 62.4 °F 50.2 °F 64% 30.11 in 10.0 mi Calm Calm - N/A   Clear
11:35 PM 61.7 °F 49.8 °F 65% 30.11 in 10.0 mi Calm Calm - N/A   Clear
11:55 PM 59.0 °F 51.6 °F 76% 30.12 in 10.0 mi WSW 3.5 mph - N/A   Clear